Wind_Speed
10 10 9 8 8 7 7 6 5 5 5 6 6 7 7 8 8 9 10 10 11 11 12 12 12 12 12 12 12 13 13 13 14 14 14 13 13 13 13 14 14 14 14 14 13 14 14 14 13 11 10 9 8 7 6 5 4 4 4 3 4 2 3 4 4 5 5 5 5 4 3 2 2 2 1 3 4 4 5 4 4 7 10 9 8 6 7 9
12 11 11 10 10 9 9 8 7 7 6 6 7 7 8 8 9 10 11 11 11 12 12 13 13 14 14 14 14 14 14 14 15 15 15 14 14 14 14 14 14 14 14 14 15 16 16 16 15 14 12 11 10 8 7 6 5 5 4 5 6 4 2 2 4 5 6 6 6 5 3 1 2 3 2 1 3 4 5 4 3 5 9 10 9 7 7 9
13 12 12 12 12 11 11 10 10 9 9 8 8 8 9 9 10 11 11 12 12 13 13 14 14 14 15 15 15 15 15 15 16 16 16 15 15 15 15 15 15 15 15 15 16 17 18 18 18 17 15 14 13 11 9 8 7 5 5 6 7 6 3 3 4 5 5 7 7 7 5 4 4 4 4 3 3 5 5 4 3 3 7 10 9 8 8 9
13 13 13 13 13 13 12 12 11 11 11 10 10 10 10 11 11 12 13 13 14 14 14 14 15 15 15 16 16 16 16 16 17 17 16 16 16 16 16 15 15 16 17 16 16 18 19 19 19 18 17 16 14 13 11 10 9 7 7 7 8 7 5 4 4 4 5 7 8 9 7 6 6 6 7 5 2 4 5 5 4 3 5 8 10 9 8 10
12 13 13 13 14 14 14 13 13 13 12 12 12 12 12 12 13 13 14 15 15 16 16 16 16 16 16 16 17 17 17 17 18 18 17 17 17 17 17 17 16 17 17 17 17 19 19 19 19 18 17 16 14 14 13 13 12 10 8 8 9 9 7 6 6 5 6 7 9 10 9 8 8 10 10 6 3 4 6 6 5 4 3 5 8 9 9 10
12 13 13 14 14 15 15 15 15 14 14 14 14 14 14 14 14 14 15 16 16 17 18 18 18 17 17 16 17 17 17 18 18 18 18 18 18 18 18 18 18 18 18 17 18 20 20 20 20 20 18 16 14 14 14 15 14 12 10 9 10 10 10 9 8 7 8 10 11 11 12 11 10 13 11 8 6 6 7 7 6 5 4 4 6 9 9 10
11 12 13 13 14 15 16 16 16 16 16 15 15 15 16 16 16 16 16 16 17 18 18 19 20 19 18 17 17 17 17 17 18 19 19 19 19 19 19 19 19 19 19 18 19 20 21 21 21 21 18 16 15 14 15 15 15 14 12 11 11 11 12 12 10 9 10 12 14 14 15 13 13 15 13 11 9 8 8 9 9 7 6 5 5 8 9 10
11 12 12 13 14 15 16 17 17 17 17 17 17 17 18 18 18 17 17 17 17 18 18 19 20 20 20 19 18 17 17 17 18 18 19 19 19 20 20 20 20 20 20 19 20 21 21 22 22 21 18 16 16 16 16 15 15 15 14 13 13 13 13 14 12 10 11 14 16 16 15 15 15 16 15 13 11 9 9 10 10 9 7 6 5 6 9 10
11 12 13 14 14 15 16 17 18 18 18 18 19 19 19 20 20 19 19 18 18 18 18 19 20 20 21 20 19 18 17 17 17 17 18 19 19 20 20 20 21 21 20 20 21 22 23 23 23 21 17 15 16 17 16 15 15 14 14 14 14 15 15 16 14 12 13 15 17 16 15 18 18 17 17 14 12 11 10 11 11 10 8 7 7 6 8 10
12 13 14 15 15 16 17 18 19 19 19 19 20 20 21 21 22 21 20 19 19 19 18 19 19 20 20 20 20 18 17 17 16 16 17 18 19 19 20 21 21 21 21 22 23 24 25 24 23 20 16 15 16 16 16 15 15 14 14 13 13 15 16 18 16 12 12 14 15 13 14 20 21 18 17 15 12 11 11 12 12 11 9 8 8 7 8 9
12 13 14 15 16 17 18 19 19 20 20 20 21 21 22 23 23 22 21 20 19 19 18 19 19 19 19 19 19 18 18 18 16 16 17 17 18 19 20 21 21 22 22 23 24 25 25 24 24 21 16 14 15 16 16 15 15 15 14 13 13 15 15 17 15 11 10 11 10 8 8 14 22 19 18 15 13 12 12 12 12 12 10 8 9 9 9 9
12 14 15 16 17 18 19 19 20 20 21 21 22 23 24 24 24 23 21 20 19 18 18 18 18 18 18 17 17 17 17 17 16 16 17 17 18 19 20 21 22 23 23 24 25 25 25 24 24 21 17 15 15 16 16 15 16 15 15 14 13 14 14 14 12 7 6 7 6 5 2 11 22 19 17 14 11 12 11 12 12 13 11 9 9 10 10 9
13 14 15 17 18 19 20 20 20 21 21 22 23 24 25 25 24 22 20 19 18 18 17 17 17 17 16 15 15 15 15 15 15 15 16 16 17 18 19 20 22 23 23 24 25 25 25 24 24 22 17 15 16 16 15 15 16 15 15 14 13 13 12 11 8 4 3 4 3 4 4 13 20 16 14 11 10 12 12 11 11 13 12 10 10 10 10 10
13 15 16 17 18 19 20 20 21 21 22 23 24 25 26 25 23 21 19 18 17 17 16 16 16 15 15 13 12 13 13 13 13 13 14 14 15 16 18 19 21 22 23 24 25 25 24 24 23 22 19 16 16 16 16 16 16 16 15 14 13 12 11 9 5 4 4 1 1 6 9 14 17 14 12 10 10 12 13 12 11 12 12 11 11 10 11 10
14 15 17 18 19 20 20 21 21 22 22 23 25 25 25 24 21 20 18 17 17 16 15 14 13 13 13 12 11 10 11 11 11 11 12 12 13 14 16 18 20 21 23 24 24 23 24 24 23 23 20 17 16 16 16 16 16 15 14 13 13 12 11 9 6 6 6 4 5 9 13 16 16 15 12 10 10 12 13 13 13 13 12 11 11 10 11 11
15 16 17 19 19 20 21 21 21 22 23 24 25 25 23 21 19 18 18 17 16 15 14 12 11 11 10 10 10 9 9 9 9 9 9 10 10 12 14 16 18 19 21 22 22 22 23 24 24 24 21 18 17 17 16 15 16 16 14 14 13 13 12 10 8 9 9 9 10 13 14 15 16 15 13 10 10 11 12 13 13 13 13 12 11 10 11 12
16 17 18 19 20 21 21 21 22 22 23 24 25 23 21 19 18 18 18 17 16 14 12 11 10 9 8 9 9 8 8 7 7 7 7 7 8 9 11 13 14 16 18 19 21 22 23 24 24 24 22 18 17 16 16 16 18 18 17 17 16 15 13 11 11 12 13 13 14 15 15 15 15 14 13 12 12 12 13 13 14 14 14 13 12 12 12 12
16 17 18 19 20 21 21 22 22 23 24 24 23 21 19 18 17 17 17 16 15 13 12 10 9 9 8 7 7 7 7 6 5 5 5 5 6 7 8 10 11 12 15 17 19 21 22 23 24 23 21 18 16 17 18 19 20 20 20 19 18 16 12 11 12 13 15 16 16 16 15 14 14 13 12 12 13 14 15 15 14 14 14 14 13 13 13 13
17 18 19 20 20 21 22 22 22 23 23 23 22 20 18 17 17 16 15 15 14 13 11 9 9 7 6 5 5 5 5 4 4 4 4 4 5 5 6 7 7 9 11 14 17 19 21 22 23 22 20 18 19 20 22 23 23 22 21 19 18 16 15 14 12 12 15 16 14 13 13 13 13 13 12 11 12 14 14 14 14 14 14 14 13 14 14 13
18 18 19 20 21 21 22 22 23 23 23 21 20 18 17 17 16 15 14 13 12 11 10 8 7 6 4 3 2 3 3 3 3 3 3 4 4 5 5 5 5 5 6 8 12 15 18 20 21 21 21 22 23 24 24 24 24 24 22 20 19 17 17 16 14 13 15 15 13 12 13 14 14 14 13 11 11 11 12 13 13 13 13 14 14 14 14 14
18 19 20 20 21 21 22 22 23 22 21 19 18 17 17 16 16 15 14 13 11 10 9 8 6 4 3 2 2 2 3 3 4 4 4 5 5 6 6 5 5 4 4 5 7 11 15 17 19 21 23 23 24 25 25 25 26 25 23 22 20 20 19 18 17 16 15 13 13 15 15 15 15 15 15 13 11 11 13 14 14 15 15 14 14 15 14 13
19 20 20 21 21 22 22 22 22 21 19 17 16 16 16 15 15 14 13 12 11 9 8 7 6 6 5 4 4 4 3 3 3 4 5 6 7 7 7 7 6 6 5 4 5 7 11 15 19 22 23 23 25 26 26 27 27 26 24 23 21 21 22 21 20 20 18 15 13 16 17 16 16 16 15 14 14 13 13 14 15 16 15 15 15 15 15 13
19 20 20 21 21 22 22 22 22 21 18 16 16 16 15 15 14 13 12 11 9 8 8 8 9 9 7 6 6 5 5 4 3 4 5 6 7 8 8 9 8 7 6 5 4 5 8 12 17 20 23 24 25 26 27 28 28 27 25 24 22 21 22 23 22 22 22 19 16 17 18 17 17 17 16 15 15 14 13 13 14 15 15 15 15 15 15 15
20 20 20 21 21 22 22 22 21 19 18 16 15 15 15 14 14 12 11 9 7 8 9 9 10 9 8 7 7 6 5 5 4 4 5 6 7 8 9 9 9 8 6 5 4 5 7 10 13 18 21 23 24 25 25 27 27 27 25 24 22 21 22 23 23 24 23 22 21 20 18 17 17 17 17 17 16 14 13 13 13 14 15 16 15 13 13 14
20 20 20 20 21 21 22 21 20 19 17 15 14 14 14 14 13 12 10 8 7 8 9 10 10 9 8 8 7 6 5 5 5 5 5 6 7 8 9 9 9 8 7 6 6 8 8 8 11 14 18 21 22 23 25 26 27 26 25 23 22 22 23 23 24 26 25 24 25 23 19 17 16 16 19 19 17 16 15 15 14 14 15 15 15 14 13 14
20 20 20 20 20 21 21 20 19 18 16 14 13 14 14 13 12 12 10 8 8 8 8 9 9 9 9 8 7 7 6 5 4 5 5 6 6 7 8 9 10 9 8 9 11 11 9 8 9 11 13 17 19 21 24 25 26 25 24 24 25 25 25 24 26 27 26 25 26 24 21 18 16 16 18 18 17 16 15 15 16 15 15 14 15 16 15 14
19 20 19 20 20 20 20 20 19 17 15 13 13 13 13 12 12 11 9 8 8 8 8 8 8 8 8 7 7 8 8 6 4 3 4 4 5 6 7 9 10 10 11 12 13 11 9 8 9 9 11 13 15 19 23 25 25 24 24 26 27 26 26 25 26 26 26 27 26 24 22 20 17 16 17 17 17 16 14 16 19 18 18 17 17 17 17 16
19 19 19 19 20 20 20 19 18 17 15 13 12 13 13 12 12 11 9 9 8 7 7 7 7 7 7 7 7 8 8 6 4 2 1 2 3 4 6 7 8 10 12 13 13 11 10 9 9 9 10 10 13 18 21 24 25 25 26 28 28 28 27 27 27 27 27 27 25 23 22 20 18 17 17 18 19 18 17 19 22 23 22 21 20 19 18 18
19 19 19 19 19 19 19 18 17 16 15 13 12 13 13 12 12 11 10 9 7 6 6 6 6 7 6 6 7 7 7 6 4 3 1 1 1 2 3 5 6 8 11 12 12 11 10 10 10 10 10 11 13 16 19 22 25 25 26 29 30 30 30 30 30 28 27 25 23 23 23 21 18 17 18 18 20 20 19 18 21 24 25 23 22 21 20 19
19 19 18 18 19 19 18 17 17 16 14 12 11 12 13 12 12 11 10 9 7 6 5 5 5 6 6 7 7 7 8 7 5 3 2 2 1 1 2 3 5 7 9 11 11 11 11 11 10 10 11 12 13 15 17 21 24 25 26 29 32 32 32 31 30 29 26 24 22 22 24 24 21 19 20 20 19 19 18 17 18 22 25 25 24 23 21 20
19 18 18 18 18 18 18 17 16 15 14 12 11 11 12 12 12 11 10 9 8 7 5 4 4 4 5 7 7 6 7 7 6 4 3 2 1 1 1 3 5 6 9 11 11 10 11 11 10 11 12 12 13 14 16 20 23 24 25 28 31 32 32 31 30 29 26 24 23 23 23 24 24 24 23 21 19 18 17 17 17 19 23 26 27 25 23 22
19 18 18 18 18 18 17 16 16 15 14 13 11 11 12 12 11 11 10 10 10 7 5 5 4 3 4 6 7 7 6 6 5 4 3 2 1 1 2 4 6 7 8 10 11 10 11 11 11 12 13 13 13 14 16 19 22 24 25 27 30 32 32 30 30 30 28 25 25 25 23 21 22 25 24 21 20 20 19 18 18 18 20 23 27 27 26 25
19 18 18 18 18 18 17 16 16 15 14 13 12 11 12 12 12 11 11 11 11 9 6 5 4 3 3 4 6 7 7 7 5 3 2 1 1 1 2 4 6 8 9 10 10 11 11 12 12 13 14 14 14 15 17 18 21 24 24 25 29 32 31 30 29 29 29 27 25 26 24 20 20 21 21 21 21 20 21 20 20 19 18 19 23 28 29 28
20 19 18 18 18 18 17 17 16 15 15 14 13 12 12 12 12 11 11 12 12 10 7 5 5 5 4 4 5 6 7 8 7 4 2 0 1 1 3 4 5 8 9 10 10 11 12 12 13 14 14 14 15 15 17 18 19 22 23 24 27 31 33 33 29 24 26 28 26 25 24 21 19 18 19 21 21 20 21 21 20 19 19 17 19 26 29 29
20 20 19 18 18 18 18 18 17 16 15 15 14 13 13 13 13 12 12 12 13 11 9 7 6 5 4 4 5 6 5 6 7 7 4 1 1 2 3 4 5 7 9 11 11 12 13 14 14 14 15 15 16 17 17 18 19 20 23 23 25 29 32 35 33 24 23 27 26 24 22 21 20 19 19 20 19 19 19 19 19 18 17 17 16 22 28 29
21 20 19 19 19 19 19 19 19 18 17 16 15 14 13 14 13 13 13 13 13 12 11 9 8 6 6 5 5 6 6 5 5 6 5 3 3 4 4 5 6 7 9 12 13 13 15 16 15 15 17 17 17 18 19 19 19 20 22 23 24 27 29 33 35 31 28 28 27 22 20 21 23 21 20 19 19 19 18 18 18 17 16 16 15 16 24 29
22 21 20 20 21 21 21 21 20 19 18 17 16 15 15 15 14 14 13 13 13 13 12 11 10 8 8 7 6 6 7 6 5 6 6 5 5 5 6 6 6 7 9 12 14 15 16 18 18 17 18 19 19 19 20 20 21 21 21 22 24 26 28 31 33 34 34 33 30 26 22 23 25 23 21 20 19 19 19 18 18 18 16 16 15 13 18 25
23 22 22 22 22 22 22 22 22 21 19 18 17 16 16 16 15 15 14 13 13 13 13 12 11 10 9 8 7 7 8 7 6 6 7 6 5 6 7 8 8 8 9 11 14 16 17 18 20 19 19 20 20 21 21 21 22 23 23 23 24 24 26 29 32 36 38 36 34 32 27 25 25 24 22 21 21 19 19 19 19 18 17 16 15 14 15 19
24 23 23 23 23 23 23 23 23 22 21 20 18 17 17 17 16 15 14 14 14 13 13 13 12 11 10 9 9 9 9 8 8 8 8 7 7 7 8 9 9 10 10 11 13 16 17 18 20 20 20 21 22 22 22 22 23 24 24 25 25 25 26 27 32 37 40 39 35 33 33 29 25 23 22 21 21 21 20 20 20 19 18 17 16 16 16 16
25 25 24 24 24 24 24 24 23 22 22 21 19 18 18 17 17 16 15 14 14 14 14 14 13 12 11 10 10 11 11 10 9 9 9 8 8 8 9 9 9 10 11 12 14 16 17 18 19 20 21 22 23 23 23 23 23 24 24 25 26 27 28 28 30 34 37 39 36 30 32 32 27 24 24 23 21 22 22 21 21 22 22 20 18 18 17 17
26 26 26 25 25 25 25 25 24 23 22 22 21 19 18 18 17 16 15 15 15 15 15 14 14 14 13 11 11 12 12 12 11 10 9 9 10 10 9 9 9 10 12 13 15 17 18 19 19 20 22 23 24 24 24 24 24 24 25 25 26 28 29 29 30 31 31 36 38 30 27 30 29 25 24 24 22 23 24 23 23 25 25 21 20 19 18 18
28 27 27 27 26 26 26 25 25 24 23 23 22 20 18 18 18 17 16 16 16 15 15 15 15 15 15 13 13 13 13 13 13 11 11 11 11 11 10 9 10 11 12 14 16 18 18 19 20 20 22 24 25 25 25 25 25 25 26 27 27 28 29 30 31 31 29 30 35 34 26 26 28 27 25 23 23 24 25 26 27 27 23 21 22 21 19 19
29 28 28 27 27 26 26 25 24 24 24 24 24 21 18 18 18 18 17 17 17 16 15 15 15 16 16 14 13 14 14 14 13 12 12 12 12 11 11 10 11 12 12 13 15 17 18 19 19 20 22 24 26 27 27 27 26 27 28 29 29 30 31 31 31 31 31 30 31 33 31 25 24 26 26 23 24 25 26 28 29 26 21 21 24 23 22 21
30 29 28 28 27 27 26 25 24 25 25 25 24 21 19 19 19 19 18 18 18 17 16 16 15 15 16 15 14 14 15 14 13 12 12 13 13 12 12 12 12 13 13 13 13 14 16 18 19 20 21 22 25 27 28 28 28 28 28 29 30 31 32 34 34 33 33 33 31 31 34 30 23 23 24 23 24 25 26 28 28 25 23 23 23 23 24 22
31 30 29 29 28 27 26 24 24 25 25 25 23 22 20 19 20 19 18 19 19 18 17 17 15 15 15 15 16 16 16 15 14 13 13 14 14 14 13 13 13 14 14 14 13 13 14 17 19 20 21 21 23 25 27 29 30 29 29 30 30 31 32 34 36 36 34 34 33 32 33 32 27 24 24 23 24 25 26 26 26 25 24 24 23 23 25 24
32 30 29 28 28 27 25 24 23 24 24 24 24 22 21 20 20 19 19 19 20 19 18 18 17 15 15 15 16 17 17 17 15 14 14 15 15 15 15 14 15 16 16 15 14 14 14 16 17 19 21 21 22 23 25 27 30 30 30 30 31 31 32 33 35 36 34 32 33 33 33 32 30 29 28 27 27 28 27 26 25 26 25 25 25 26 27 27
31 30 28 28 27 26 25 23 22 23 24 24 24 23 22 21 21 20 19 20 21 20 19 19 17 16 16 15 15 17 18 17 16 15 15 15 16 16 16 15 16 17 17 16 16 15 16 16 16 16 18 20 21 22 23 24 27 29 30 30 30 31 32 33 34 34 32 30 31 32 32 32 32 30 29 30 32 32 30 28 27 26 26 26 26 28 30 30
30 29 27 26 26 25 24 23 22 23 23 23 23 23 22 22 22 21 20 20 20 20 19 18 17 16 16 16 16 17 17 16 16 17 16 17 17 18 18 17 16 17 17 16 16 16 17 18 17 15 16 18 19 20 21 22 23 24 26 26 27 29 30 32 34 34 33 31 30 30 30 31 32 32 31 32 35 35 31 28 27 26 25 26 26 27 29 30
29 29 27 25 25 24 24 24 23 23 23 23 23 23 23 24 23 21 20 20 20 19 17 16 16 17 17 17 17 17 16 14 14 16 18 19 19 19 19 18 17 16 16 15 14 14 15 17 17 16 16 17 17 17 18 19 21 22 23 23 24 25 27 30 33 34 34 33 31 31 32 31 31 32 32 32 33 34 32 28 27 26 25 25 25 26 27 28
28 29 28 26 25 25 24 24 24 23 23 23 24 24 24 25 23 21 21 19 18 18 16 14 16 17 17 17 17 16 15 13 13 14 17 18 18 18 19 18 17 16 15 14 13 12 13 14 14 14 16 17 17 16 15 15 17 19 21 23 23 23 24 26 29 32 33 34 33 32 32 33 32 31 30 30 30 31 32 29 26 25 25 26 26 26 26 27
27 28 28 27 26 25 25 24 24 23 23 23 24 24 25 25 23 21 21 19 18 18 17 16 17 18 17 17 15 14 14 13 12 13 15 16 17 17 18 18 16 15 15 14 13 12 12 12 12 12 14 15 15 15 14 14 14 15 17 20 22 23 23 24 25 28 30 33 35 32 27 28 32 32 30 28 29 30 31 30 27 26 26 27 27 27 26 26
25 26 27 27 27 26 25 25 24 23 23 23 23 24 24 25 24 22 21 21 19 19 18 18 18 19 18 16 15 15 15 14 12 12 13 14 16 17 17 17 16 16 15 14 13 13 13 14 13 12 13 13 12 13 14 14 14 14 15 17 19 21 22 21 21 24 28 32 35 35 29 25 26 30 30 28 28 30 31 31 30 28 27 28 28 28 27 26
Wind_Direction
42 41 39 36 31 26 21 15 6 355 342 331 323 316 311 307 305 303 303 302 301 301 300 299 296 292 285 279 274 271 268 264 262 262 259 254 247 241 235 234 235 232 229 231 239 246 251 254 255 256 256 260 265 272 282 294 303 307 317 321 309 326 51 37 10 359 351 340 355 17 29 24 328 303 42 69 79 88 89 91 104 110 109 108 108 116 127 122
37 34 31 29 25 21 17 12 5 356 346 335 325 316 310 304 302 301 301 300 300 298 296 294 292 290 287 281 276 272 269 266 264 262 260 258 252 247 241 237 238 237 233 231 237 243 248 253 257 257 256 256 256 260 270 280 288 299 310 306 301 305 354 11 356 352 346 334 336 341 344 340 299 283 277 88 102 105 102 92 99 119 116 117 117 124 132 125
31 28 24 22 18 14 11 6 1 355 347 338 328 317 309 302 297 295 294 295 297 297 295 292 289 286 284 281 278 274 270 267 264 262 261 260 257 253 249 243 241 241 238 234 236 242 247 251 255 256 256 254 252 252 258 267 273 283 288 290 295 301 318 330 332 344 336 324 322 320 311 292 283 262 251 234 141 124 128 114 111 132 126 126 125 129 134 125
25 22 18 15 12 8 5 1 356 351 345 339 331 321 314 306 298 292 289 288 290 292 294 293 289 285 281 279 277 274 271 266 263 262 261 261 260 258 255 251 245 244 243 240 239 243 247 250 253 255 255 253 252 251 252 258 261 265 270 278 287 295 306 306 308 324 321 313 314 310 288 271 276 252 239 238 168 128 141 133 126 139 140 137 131 133 135 125
18 14 11 8 5 2 359 356 352 347 342 337 332 326 320 312 305 297 291 286 284 285 288 290 290 288 283 279 275 273 270 263 262 263 261 261 259 258 257 255 250 246 246 244 243 246 247 250 252 253 253 253 253 251 250 251 254 257 262 272 283 291 300 297 300 313 309 313 314 300 274 262 265 246 234 230 197 146 141 141 135 132 141 145 138 139 137 128
11 8 5 2 359 356 354 351 348 344 340 336 331 328 323 317 310 303 298 291 285 282 282 284 287 288 286 282 277 273 269 262 261 261 260 259 258 257 256 255 253 250 248 245 246 247 248 249 250 250 251 252 252 250 249 249 251 254 257 263 275 287 297 296 300 304 306 315 314 296 274 263 255 242 227 213 202 163 143 148 147 137 133 142 143 144 140 134
4 1 358 355 353 350 348 345 343 340 337 333 330 327 323 319 313 307 302 296 290 285 282 281 282 286 287 286 282 277 271 265 262 259 258 258 257 256 255 254 254 253 251 247 246 248 249 249 249 249 250 251 251 250 249 249 250 252 252 256 264 277 286 291 295 298 302 309 307 295 278 263 248 234 214 205 202 168 153 159 154 144 137 141 154 155 145 138
357 354 351 349 347 345 342 340 338 336 334 331 328 326 323 320 316 309 303 298 292 287 285 283 283 284 286 287 286 282 276 269 263 258 256 255 254 254 253 253 253 253 252 250 249 250 250 250 250 249 248 250 249 249 249 250 250 252 253 253 257 264 272 280 285 291 296 299 301 295 278 259 241 223 201 199 199 170 164 167 155 147 147 147 163 172 150 140
350 346 344 342 341 339 338 336 334 332 331 328 327 325 323 320 317 312 306 299 293 289 287 286 286 285 284 286 286 285 280 274 267 262 258 255 253 251 250 250 250 251 251 251 250 250 251 250 251 249 246 247 248 248 250 251 252 253 255 255 256 259 263 269 274 282 286 294 301 298 276 248 229 207 192 195 195 174 167 171 158 150 156 155 160 181 159 145
344 341 339 338 336 335 334 333 331 329 328 327 325 324 323 320 318 314 308 302 296 292 290 289 288 286 284 283 283 283 279 276 271 265 260 256 253 251 248 247 247 247 247 248 249 250 252 252 254 252 246 244 246 249 250 251 252 252 255 256 257 259 261 265 270 277 280 297 304 300 277 235 209 188 184 192 193 177 170 172 161 151 161 163 158 175 171 152
339 337 336 335 333 332 331 330 329 327 326 325 325 324 322 321 318 315 310 305 300 297 295 293 291 287 285 282 280 279 275 274 271 265 260 256 253 250 248 246 245 244 243 244 247 250 253 254 256 256 250 244 245 247 248 249 249 249 251 253 257 258 260 263 270 277 278 298 293 283 285 213 185 175 180 188 190 179 172 172 162 153 162 170 163 169 175 160
335 334 333 332 331 330 329 328 327 326 326 325 324 323 323 322 319 316 312 309 305 303 301 297 293 290 286 282 280 276 273 271 269 265 262 257 253 249 247 245 244 243 242 243 246 250 253 255 258 259 254 247 244 244 245 247 246 246 246 246 251 255 260 263 269 276 269 302 280 236 279 177 167 168 177 183 189 179 173 173 163 156 162 175 171 166 174 169
331 331 331 331 330 329 328 327 326 326 325 325 324 324 323 322 320 318 315 313 310 307 304 300 296 293 289 285 282 279 275 273 271 268 265 261 257 252 248 246 244 244 244 244 246 248 251 253 257 258 254 247 245 244 243 244 244 244 244 243 246 250 259 263 264 253 234 309 291 195 185 170 161 161 171 178 189 181 172 173 168 162 163 176 177 167 170 173
329 329 330 330 329 328 327 327 326 325 325 325 325 325 324 323 321 320 318 316 313 310 307 304 301 297 292 289 286 281 277 275 272 269 266 263 259 254 249 246 245 245 245 246 246 247 249 250 253 254 250 245 243 243 242 242 242 242 243 242 242 246 255 258 246 216 207 255 210 168 165 167 157 152 165 175 187 186 176 172 173 170 167 174 179 173 168 170
329 329 330 330 329 328 327 327 326 326 326 326 327 326 326 325 324 322 320 317 314 313 311 309 305 300 296 293 289 285 281 277 272 269 268 264 260 256 250 247 245 245 245 246 246 246 248 248 249 250 247 240 239 240 240 243 244 242 241 240 238 239 246 245 221 203 197 186 169 154 156 168 163 155 163 177 187 192 184 175 175 175 173 174 179 180 170 164
329 330 330 330 329 328 328 327 327 327 327 328 328 328 328 328 326 324 322 319 316 316 315 313 309 304 299 297 295 290 284 279 275 272 269 265 263 259 253 250 248 246 247 247 246 244 245 246 247 248 245 238 234 235 237 241 243 240 237 235 231 228 233 230 209 196 191 182 169 159 163 176 177 166 166 180 187 192 191 183 180 178 178 179 178 181 176 169
329 330 330 330 329 328 328 328 328 328 328 329 329 330 331 330 328 326 323 321 319 318 317 316 313 307 302 300 299 294 290 284 277 270 268 267 265 261 257 254 250 247 246 245 243 242 242 244 244 245 244 236 231 230 231 234 237 235 230 228 223 218 220 221 210 200 194 188 177 171 173 180 184 178 175 182 185 189 191 188 187 183 182 185 180 181 186 182
328 329 329 329 329 328 328 329 329 329 330 330 331 332 333 331 329 327 325 323 322 321 319 316 314 310 304 302 300 299 298 293 283 275 273 275 274 267 262 259 255 249 244 241 239 239 239 241 242 243 243 237 229 224 224 227 231 232 230 227 223 215 210 214 212 205 202 199 188 181 180 182 187 189 184 185 186 189 191 190 193 191 186 187 184 183 190 193
326 328 328 328 328 329 329 329 330 330 331 331 332 333 333 331 329 327 326 325 325 323 320 316 312 308 305 302 298 299 298 293 290 287 283 282 280 276 269 266 261 252 246 242 239 238 238 239 240 240 238 232 224 219 219 223 227 229 229 227 223 215 209 210 210 208 206 204 196 185 185 187 191 193 191 190 190 190 192 191 195 198 194 191 189 188 191 195
324 326 327 328 328 328 328 329 330 331 331 332 333 334 333 331 329 328 326 328 327 323 320 316 313 314 313 306 294 292 292 290 289 287 286 283 282 284 279 275 272 265 257 247 242 239 238 238 237 235 232 227 223 220 218 221 225 227 226 223 218 213 210 207 207 211 206 200 197 194 196 196 194 196 193 189 188 188 192 193 196 202 200 197 196 197 195 192
322 324 326 327 327 327 327 329 331 332 332 332 333 333 332 330 328 327 328 330 330 326 324 325 328 337 339 322 302 293 289 286 285 287 289 286 285 285 281 281 282 278 273 260 249 242 237 236 234 231 230 227 224 222 218 219 223 225 224 221 215 211 209 206 206 213 209 199 199 201 204 202 199 202 196 186 186 188 191 193 196 201 202 201 201 204 201 189
320 322 324 325 325 325 326 328 331 332 331 331 331 331 329 328 327 328 330 332 333 333 335 342 352 359 356 351 342 329 316 295 284 288 289 287 285 281 277 278 280 281 283 280 262 249 240 234 231 230 228 225 223 221 216 217 220 221 222 221 216 213 212 209 208 214 216 215 215 211 210 210 206 207 201 192 192 192 191 194 197 201 203 201 203 208 205 192
317 320 322 323 324 324 325 327 330 331 330 328 329 329 327 325 326 328 330 331 337 344 350 357 1 0 359 358 348 334 322 309 295 290 283 281 279 275 273 274 277 281 285 289 284 261 247 238 235 235 231 227 225 222 217 217 219 219 218 218 215 215 217 214 211 213 215 220 225 221 218 218 215 213 209 202 199 195 190 193 198 203 206 206 207 209 205 197
315 318 320 321 322 322 323 326 329 330 329 326 327 326 323 323 324 326 328 332 346 357 1 3 1 358 358 354 346 334 325 315 306 296 283 277 271 266 264 265 269 272 274 280 273 251 250 248 244 241 236 231 227 225 221 220 222 221 218 216 214 215 220 220 217 215 214 216 220 221 222 220 217 214 210 206 205 204 199 194 196 203 209 212 212 212 208 202
313 315 318 319 320 320 322 324 326 328 328 326 324 322 319 319 320 322 326 337 356 3 3 3 359 355 354 351 348 344 335 322 306 295 286 276 266 259 257 254 253 254 257 258 248 249 258 257 251 247 243 237 231 226 222 221 224 224 220 218 215 216 221 222 221 219 217 219 218 217 222 221 216 213 209 206 209 215 213 201 197 205 211 212 213 213 212 210
311 313 315 317 318 319 320 322 324 325 327 325 321 318 315 316 317 321 328 340 353 358 0 3 359 353 350 349 349 344 336 329 308 292 282 273 266 261 256 248 245 242 239 241 245 254 265 264 260 257 250 243 235 230 225 222 225 226 222 219 216 217 221 224 225 223 221 225 222 217 221 224 218 215 211 206 208 218 218 208 204 208 214 215 213 212 210 213
309 311 314 315 316 317 319 320 322 323 325 323 319 315 312 313 315 319 325 328 336 348 357 2 359 350 347 349 348 339 333 331 318 297 279 272 267 259 252 246 244 238 234 240 248 255 264 266 268 265 255 246 236 232 227 222 223 223 220 218 217 219 223 225 229 229 224 226 227 221 221 225 220 214 211 204 203 210 213 211 210 209 214 215 213 213 209 212
309 310 312 313 314 315 318 320 320 321 322 320 316 312 310 310 313 315 317 319 329 346 354 357 355 347 345 350 347 336 327 324 326 326 293 275 265 254 252 250 246 242 241 247 251 255 262 263 263 263 259 248 234 230 227 224 222 219 216 216 215 218 223 223 226 231 229 227 229 225 221 223 221 215 212 206 202 204 207 210 211 210 214 214 210 212 210 210
307 309 310 311 312 314 317 318 319 319 319 317 312 310 310 309 307 308 310 314 327 344 350 354 351 343 344 348 343 332 323 319 327 345 345 314 281 261 259 255 252 249 249 252 253 255 256 253 256 259 255 247 237 231 227 225 224 219 217 216 214 216 222 223 223 227 230 228 230 231 225 222 222 219 217 213 208 207 209 212 213 212 215 214 208 210 210 210
305 307 308 309 310 312 315 317 318 317 317 313 306 306 309 307 303 303 306 308 317 330 339 348 349 344 341 339 335 330 324 322 332 353 2 0 343 286 258 246 248 248 248 251 252 252 249 248 251 253 249 245 240 235 229 226 225 222 220 219 217 217 221 225 225 227 230 230 232 236 232 227 226 226 225 221 216 215 215 218 218 216 216 215 211 209 209 211
302 304 306 307 308 310 313 315 316 316 314 309 301 300 304 303 299 299 300 301 306 314 322 328 338 343 333 325 323 324 321 321 332 353 6 9 351 307 254 220 226 232 241 247 248 245 244 245 247 247 247 244 240 238 233 228 228 228 224 221 222 222 224 227 229 230 230 229 232 238 237 231 229 232 234 232 228 225 224 228 228 221 219 219 217 212 208 211
299 301 303 305 305 307 310 313 313 314 313 308 300 296 297 298 296 295 294 293 295 295 299 307 318 330 320 313 313 315 313 315 327 347 0 9 351 305 258 222 217 217 227 239 243 240 239 240 242 244 244 242 240 240 236 232 232 234 230 225 224 226 227 228 228 227 228 228 230 236 240 233 228 231 235 237 236 230 226 227 228 223 221 224 224 220 212 209
296 297 299 301 302 304 306 308 309 311 311 308 302 295 292 293 293 292 289 286 285 286 289 295 300 304 303 299 301 304 307 308 316 347 21 15 324 268 244 231 223 218 217 226 236 238 238 238 239 243 243 242 240 241 242 239 236 238 238 231 227 227 228 230 228 220 220 223 226 234 238 230 224 226 228 232 235 232 227 226 226 225 225 226 227 226 221 213
293 294 296 297 298 300 301 302 304 307 307 305 302 297 291 289 289 287 283 280 282 286 288 286 287 293 294 287 284 290 301 308 314 334 24 31 285 244 236 232 226 224 220 220 229 236 240 240 237 240 243 243 243 243 244 245 244 244 244 238 232 229 229 232 235 222 211 216 222 227 227 216 211 212 216 225 230 229 230 230 229 229 231 233 228 224 223 220
290 291 292 293 294 295 297 298 299 301 302 301 300 298 292 286 283 282 280 281 283 286 286 283 279 281 283 277 271 273 286 299 307 317 331 318 264 241 240 237 230 229 224 222 226 232 240 243 240 241 243 242 243 245 245 248 250 249 248 245 238 234 231 232 238 237 223 222 224 221 218 211 207 205 206 217 225 227 230 233 235 236 236 240 237 223 219 221
288 288 289 289 290 292 293 294 295 296 298 297 297 295 290 285 281 280 279 281 284 285 287 287 285 284 282 277 265 261 269 280 290 299 304 291 267 250 239 235 234 233 228 226 228 231 237 243 242 242 244 243 241 243 245 245 245 246 249 251 245 240 237 234 237 238 235 233 230 223 217 212 210 209 207 212 219 225 229 233 238 241 239 239 241 228 217 218
285 285 286 286 287 289 290 291 291 292 293 293 292 290 287 284 283 280 279 280 283 285 288 289 289 289 285 279 268 257 262 271 275 277 277 273 268 261 251 244 238 234 231 230 230 232 234 239 241 240 242 244 242 242 244 243 243 243 244 249 249 244 241 238 237 235 235 236 234 228 218 209 208 208 206 209 215 220 226 231 235 239 240 238 237 234 227 221
281 282 283 284 285 286 287 287 287 288 289 289 287 285 284 284 284 283 281 281 281 282 285 286 287 289 285 279 274 266 264 268 268 268 270 268 264 261 259 256 249 240 232 228 230 233 232 234 239 240 240 243 244 243 244 243 242 242 242 244 246 245 242 239 238 234 234 236 235 230 222 213 209 209 206 208 213 218 223 228 233 237 241 241 237 233 235 230
278 279 280 282 283 284 284 284 283 284 285 285 283 282 282 283 284 284 284 282 280 280 281 282 284 287 285 278 274 271 268 266 265 266 268 269 265 260 258 257 254 247 237 226 227 233 233 231 235 240 241 242 245 245 245 243 240 240 243 244 245 246 244 240 238 236 235 236 232 224 220 217 213 212 212 212 214 218 223 226 231 235 237 239 237 231 231 233
275 276 278 279 281 282 281 281 280 279 280 280 279 278 278 280 282 283 283 281 279 278 278 280 282 284 283 276 269 266 265 262 260 261 263 265 265 263 260 257 255 251 244 233 227 230 233 233 234 238 241 244 246 246 245 244 240 238 242 245 248 250 249 246 244 243 242 240 232 214 208 213 214 210 212 215 216 219 225 229 231 232 233 233 231 228 228 230
273 274 275 277 279 279 280 279 277 275 274 274 274 274 276 278 279 279 279 277 275 275 275 277 279 281 280 274 264 261 259 253 250 252 255 257 259 259 259 258 257 255 250 241 235 232 232 234 235 236 238 242 245 246 245 245 242 238 239 243 247 251 252 253 254 255 254 250 241 225 204 204 208 205 207 215 220 221 225 229 231 232 235 237 233 230 230 229
271 271 273 275 277 277 278 277 273 270 268 268 269 270 272 274 274 274 274 273 271 271 271 272 274 277 279 275 266 261 258 250 244 244 246 248 252 255 257 259 261 260 255 246 241 238 236 236 237 237 236 239 243 245 245 245 244 241 240 241 245 249 251 254 257 260 263 262 254 243 223 205 204 207 210 215 220 223 226 228 231 234 239 240 240 239 236 233
270 270 271 273 274 276 277 275 270 264 261 262 264 265 266 267 269 269 269 270 269 268 267 268 272 276 279 276 268 260 257 253 247 243 243 244 247 250 253 256 259 263 262 254 246 244 242 241 240 240 240 240 243 246 248 247 245 244 243 242 244 246 249 253 257 259 261 266 266 258 245 226 210 209 214 217 222 224 224 227 233 241 244 242 243 245 243 240
268 268 269 271 272 274 275 273 266 259 256 258 260 261 261 261 262 264 265 267 267 266 265 267 270 274 277 277 271 263 257 255 253 248 244 245 245 247 250 254 258 261 263 263 259 253 249 246 244 244 245 244 245 247 249 251 250 247 245 245 245 246 248 251 256 259 259 260 266 265 258 249 230 214 212 217 224 227 225 227 233 240 244 244 245 247 246 245
266 266 267 269 270 271 272 269 262 255 253 255 256 256 256 255 257 261 263 264 264 263 263 265 268 270 273 276 275 271 263 258 256 251 245 244 246 246 249 253 259 262 264 266 268 265 259 253 250 249 249 249 249 249 250 252 254 252 249 248 248 249 250 252 255 259 261 259 260 261 261 258 250 239 229 223 226 231 231 233 237 241 245 246 248 251 251 250
266 265 265 267 267 267 268 266 259 252 249 250 252 253 253 253 254 257 258 259 260 261 262 265 269 271 275 278 278 275 268 259 253 248 243 244 248 249 249 251 256 261 263 264 266 267 266 261 256 252 251 252 253 253 253 253 255 256 254 252 251 251 251 253 255 258 261 261 260 258 257 255 253 251 245 235 230 232 234 238 242 248 254 255 254 257 260 259
267 265 264 264 265 265 264 262 256 250 247 247 249 251 252 252 253 253 253 253 255 259 263 267 272 278 283 285 282 278 273 263 251 243 242 247 250 251 250 248 251 256 260 263 264 264 265 263 259 254 252 252 254 256 258 258 258 259 258 257 255 254 254 254 255 257 259 260 258 256 253 252 250 250 248 241 233 229 230 235 241 249 257 261 261 262 265 267
267 266 263 261 262 262 260 257 253 249 246 245 247 250 252 253 253 252 251 250 252 256 261 267 274 282 285 285 282 277 273 265 252 242 241 247 249 248 247 244 244 251 259 263 266 265 263 261 259 257 254 252 253 255 258 261 262 263 263 262 259 257 256 255 255 256 258 258 257 253 250 250 250 249 249 245 236 228 225 230 236 244 254 261 264 267 269 272
266 265 263 260 259 258 256 253 250 249 247 246 247 249 250 251 252 252 251 249 250 253 257 264 273 279 281 283 283 276 270 263 252 241 238 241 243 244 246 244 242 247 256 261 266 266 262 260 259 259 258 255 254 255 257 260 262 263 264 264 263 260 257 256 255 255 257 258 256 252 248 247 249 250 250 249 243 233 227 227 231 240 250 259 264 267 270 272
265 264 263 260 257 255 252 250 250 249 248 247 248 248 249 250 251 251 252 250 250 252 254 259 266 270 274 280 282 275 266 261 253 245 241 241 243 244 246 246 244 245 249 255 262 263 262 264 265 265 265 261 258 258 259 261 262 261 259 259 260 261 259 257 255 253 255 255 251 250 248 243 242 247 250 250 248 240 231 228 232 239 247 255 260 263 266 269
263 263 262 259 257 253 249 247 248 249 249 248 247 247 248 250 250 250 250 249 247 249 251 253 257 262 268 276 278 268 259 258 256 253 251 249 249 249 249 248 244 242 244 248 256 261 263 268 273 276 274 270 264 260 258 260 262 262 260 255 254 255 257 259 258 254 252 250 246 246 246 238 232 235 240 244 249 246 236 232 236 243 246 250 255 258 262 266
262 261 260 259 257 253 248 246 245 247 248 247 247 247 248 249 248 248 247 247 245 245 247 250 254 258 262 268 269 261 256 258 259 259 259 257 254 251 250 246 242 241 243 246 252 259 264 269 275 281 284 281 273 264 260 262 267 268 264 257 251 250 251 255 258 254 250 249 247 244 244 245 239 234 234 239 245 247 245 239 238 241 245 247 250 253 256 260
Height
5891 5891 5891 5891 5890 5890 5890 5890 5889 5889 5889 5889 5888 5888 5888 5888 5888 5888 5888 5888 5887 5887 5887 5887 5887 5887 5887 5887 5887 5887 5888 5888 5889 5889 5889 5890 5892 5892 5893 5894 5894 5896 5897 5898 5898 5898 5898 5898 5898 5899 5900 5901 5901 5902 5902 5903 5903 5904 5904 5904 5904 5904 5904 5904 5904 5905 5905 5904 5904 5904 5904 5904 5903 5903 5903 5903 5903 5904 5904 5904 5904 5904 5903 5903 5904 5904 5904 5905
5891 5891 5891 5891 5890 5890 5890 5889 5889 5889 5888 5888 5888 5888 5888 5887 5887 5887 5887 5887 5887 5886 5886 5886 5886 5886 5886 5886 5886 5886 5886 5887 5887 5888 5888 5889 5890 5891 5892 5893 5893 5894 5896 5897 5897 5897 5897 5897 5897 5898 5899 5900 5900 5901 5902 5902 5903 5904 5903 5903 5903 5904 5904 5904 5904 5904 5905 5905 5904 5904 5904 5904 5903 5904 5904 5903 5903 5904 5904 5904 5905 5905 5904 5904 5904 5905 5905 5905
5892 5891 5891 5891 5890 5890 5889 5889 5889 5888 5888 5888 5887 5887 5887 5887 5886 5886 5886 5886 5886 5885 5885 5885 5885 5884 5884 5884 5884 5884 5885 5885 5886 5886 5887 5888 5889 5889 5890 5892 5893 5893 5894 5895 5896 5895 5895 5896 5896 5897 5898 5899 5899 5900 5901 5902 5902 5903 5903 5903 5903 5903 5904 5903 5903 5904 5904 5904 5904 5904 5904 5904 5904 5903 5903 5903 5903 5903 5904 5904 5906 5906 5906 5905 5905 5906 5906 5906
5892 5892 5891 5891 5890 5890 5889 5889 5888 5888 5887 5887 5887 5886 5886 5886 5885 5885 5885 5884 5884 5884 5884 5883 5883 5883 5883 5883 5883 5883 5883 5883 5884 5884 5885 5886 5887 5888 5889 5890 5891 5892 5892 5894 5894 5894 5894 5895 5895 5896 5897 5897 5898 5899 5900 5900 5901 5902 5902 5902 5902 5903 5903 5903 5902 5903 5903 5904 5904 5904 5903 5904 5903 5903 5903 5903 5904 5903 5904 5904 5906 5907 5907 5906 5906 5906 5907 5907
5892 5892 5891 5891 5890 5890 5889 5889 5888 5887 5887 5886 5886 5885 5885 5885 5884 5884 5883 5883 5883 5882 5882 5882 5881 5881 5881 5881 5881 5881 5881 5881 5882 5883 5884 5885 5885 5886 5887 5888 5889 5890 5891 5892 5893 5893 5893 5893 5893 5894 5895 5896 5898 5899 5899 5899 5900 5901 5901 5901 5901 5901 5902 5902 5902 5902 5902 5902 5903 5903 5902 5902 5903 5902 5902 5903 5904 5904 5904 5904 5906 5907 5907 5907 5907 5907 5907 5907
5892 5891 5891 5890 5890 5889 5889 5888 5888 5887 5886 5886 5885 5885 5884 5883 5883 5882 5882 5881 5881 5881 5880 5880 5880 5879 5879 5879 5879 5879 5879 5880 5880 5881 5882 5883 5883 5884 5885 5886 5887 5888 5889 5891 5891 5891 5891 5892 5892 5893 5894 5896 5897 5898 5898 5898 5899 5900 5901 5901 5900 5900 5901 5901 5901 5900 5900 5901 5902 5902 5901 5901 5902 5901 5902 5903 5904 5904 5904 5904 5905 5907 5908 5908 5908 5908 5907 5908
5892 5891 5891 5890 5890 5889 5888 5888 5887 5886 5886 5885 5884 5884 5883 5882 5882 5881 5880 5880 5879 5879 5878 5878 5878 5878 5877 5877 5877 5877 5877 5878 5878 5879 5880 5881 5881 5882 5883 5884 5885 5886 5887 5889 5889 5889 5890 5890 5890 5891 5893 5895 5896 5897 5897 5897 5898 5899 5900 5900 5900 5900 5900 5900 5900 5899 5899 5899 5900 5901 5900 5900 5900 5900 5901 5903 5903 5904 5904 5904 5905 5906 5907 5908 5909 5909 5908 5908
5892 5891 5890 5890 5889 5888 5888 5887 5886 5885 5885 5884 5883 5882 5882 5881 5880 5879 5879 5878 5877 5877 5876 5876 5876 5876 5875 5875 5875 5875 5875 5876 5876 5877 5877 5878 5879 5880 5881 5882 5883 5884 5885 5886 5887 5887 5888 5888 5889 5890 5893 5894 5895 5895 5896 5897 5897 5898 5899 5899 5899 5899 5899 5898 5899 5898 5897 5898 5898 5899 5898 5898 5899 5899 5900 5902 5902 5903 5904 5904 5905 5906 5907 5908 5909 5910 5909 5908
5891 5890 5890 5889 5888 5888 5887 5886 5885 5884 5884 5883 5882 5881 5880 5879 5878 5878 5877 5876 5875 5875 5875 5874 5874 5873 5873 5873 5873 5873 5873 5873 5874 5874 5875 5875 5876 5878 5879 5880 5881 5882 5883 5884 5885 5885 5885 5885 5887 5889 5892 5894 5894 5894 5895 5896 5897 5897 5898 5898 5898 5898 5898 5897 5898 5898 5897 5897 5897 5897 5896 5896 5897 5898 5900 5901 5902 5903 5904 5905 5905 5906 5908 5909 5910 5910 5910 5909
5890 5890 5889 5888 5888 5887 5886 5885 5884 5883 5882 5881 5881 5880 5879 5878 5877 5876 5875 5874 5873 5873 5873 5872 5872 5871 5871 5871 5871 5871 5871 5871 5872 5872 5872 5873 5874 5875 5876 5877 5878 5880 5881 5882 5882 5882 5882 5883 5885 5887 5891 5893 5893 5893 5894 5895 5896 5896 5897 5897 5897 5897 5897 5896 5897 5897 5896 5896 5895 5894 5893 5892 5895 5898 5900 5901 5902 5902 5904 5905 5905 5906 5908 5909 5910 5911 5911 5910
5890 5889 5888 5888 5887 5886 5885 5884 5883 5882 5881 5880 5879 5878 5877 5876 5875 5874 5873 5872 5871 5871 5870 5870 5869 5869 5868 5868 5868 5868 5868 5869 5869 5869 5870 5871 5871 5872 5874 5875 5876 5877 5878 5879 5879 5879 5880 5882 5883 5886 5890 5892 5892 5892 5893 5894 5894 5895 5896 5896 5896 5896 5896 5896 5896 5896 5896 5896 5895 5894 5892 5891 5894 5897 5899 5900 5901 5902 5904 5905 5905 5906 5908 5909 5910 5911 5911 5911
5889 5888 5887 5887 5886 5885 5884 5883 5882 5881 5880 5879 5877 5876 5875 5874 5873 5871 5871 5870 5869 5868 5868 5867 5867 5866 5866 5866 5865 5866 5866 5866 5866 5867 5867 5868 5869 5870 5871 5872 5873 5874 5875 5876 5877 5877 5879 5880 5882 5884 5888 5890 5890 5891 5891 5892 5893 5894 5894 5895 5895 5895 5895 5895 5895 5896 5896 5895 5894 5894 5893 5892 5894 5897 5899 5900 5901 5903 5904 5905 5905 5906 5908 5909 5910 5911 5912 5912
5888 5887 5887 5886 5885 5884 5883 5882 5881 5879 5878 5877 5876 5874 5873 5872 5871 5870 5869 5868 5867 5866 5866 5865 5864 5864 5863 5863 5863 5863 5863 5864 5864 5864 5865 5866 5866 5867 5868 5869 5870 5871 5873 5874 5874 5875 5877 5879 5880 5882 5886 5888 5888 5889 5890 5891 5891 5892 5893 5893 5894 5894 5894 5894 5894 5895 5895 5895 5894 5894 5894 5894 5895 5898 5899 5900 5902 5903 5904 5905 5906 5906 5908 5909 5910 5911 5912 5912
5887 5886 5886 5885 5884 5883 5882 5880 5879 5878 5877 5876 5874 5873 5871 5870 5869 5868 5867 5866 5865 5864 5863 5863 5862 5861 5861 5861 5861 5861 5861 5861 5862 5862 5863 5863 5864 5865 5866 5867 5868 5869 5870 5871 5873 5874 5875 5877 5878 5880 5883 5885 5886 5887 5888 5889 5890 5890 5891 5892 5893 5893 5893 5893 5894 5895 5895 5894 5894 5894 5895 5895 5896 5898 5900 5900 5901 5903 5904 5905 5906 5907 5908 5909 5910 5911 5912 5913
5886 5885 5884 5883 5882 5881 5880 5879 5878 5877 5875 5874 5873 5871 5870 5868 5867 5866 5865 5864 5863 5862 5862 5861 5860 5859 5859 5859 5859 5859 5859 5859 5860 5860 5861 5861 5862 5863 5864 5864 5865 5867 5868 5869 5871 5872 5873 5874 5876 5877 5880 5883 5885 5886 5886 5887 5888 5889 5890 5891 5891 5892 5892 5892 5893 5894 5894 5894 5895 5895 5895 5896 5897 5898 5899 5900 5901 5902 5903 5904 5906 5907 5907 5909 5911 5911 5912 5913
5885 5884 5883 5882 5881 5880 5879 5878 5876 5875 5874 5873 5871 5870 5868 5867 5866 5865 5864 5863 5862 5861 5860 5859 5859 5858 5857 5857 5857 5858 5858 5858 5858 5859 5859 5859 5860 5861 5862 5862 5863 5865 5866 5867 5869 5870 5871 5872 5873 5875 5878 5881 5883 5884 5885 5885 5885 5886 5888 5889 5889 5890 5891 5891 5892 5893 5893 5894 5894 5894 5895 5896 5897 5897 5899 5900 5901 5902 5903 5904 5905 5906 5907 5909 5910 5912 5912 5912
5884 5883 5882 5881 5880 5879 5878 5876 5875 5874 5872 5871 5870 5868 5867 5866 5865 5864 5862 5861 5860 5859 5859 5858 5858 5857 5857 5856 5856 5856 5856 5857 5857 5857 5857 5858 5859 5859 5860 5860 5861 5863 5864 5865 5867 5867 5868 5869 5871 5873 5875 5879 5881 5882 5883 5883 5883 5884 5885 5886 5887 5888 5889 5890 5891 5892 5892 5893 5893 5894 5895 5896 5897 5897 5898 5899 5900 5901 5902 5903 5905 5906 5907 5908 5910 5912 5912 5912
5882 5881 5881 5880 5878 5877 5876 5875 5874 5872 5871 5870 5868 5867 5866 5865 5864 5862 5861 5860 5859 5858 5857 5857 5856 5856 5856 5855 5855 5855 5855 5855 5855 5856 5856 5857 5857 5858 5858 5859 5860 5861 5862 5863 5864 5865 5866 5867 5869 5871 5874 5877 5879 5880 5880 5880 5880 5881 5883 5884 5885 5887 5889 5889 5890 5892 5892 5892 5892 5893 5894 5896 5897 5898 5898 5899 5900 5901 5901 5902 5903 5905 5907 5908 5910 5911 5912 5913
5881 5880 5879 5878 5877 5876 5875 5873 5872 5871 5870 5868 5867 5866 5865 5864 5863 5861 5860 5859 5858 5857 5856 5856 5855 5855 5855 5855 5855 5855 5855 5855 5855 5855 5855 5856 5856 5857 5857 5858 5859 5859 5860 5861 5862 5863 5864 5865 5867 5869 5871 5874 5875 5876 5877 5877 5878 5880 5881 5883 5884 5886 5888 5889 5890 5891 5892 5893 5893 5894 5895 5895 5896 5898 5898 5899 5900 5901 5902 5902 5903 5905 5906 5908 5909 5911 5912 5913
5880 5879 5878 5877 5876 5874 5873 5872 5871 5869 5868 5867 5866 5865 5864 5863 5862 5860 5859 5858 5857 5856 5856 5855 5854 5854 5854 5854 5854 5854 5854 5854 5854 5854 5855 5855 5855 5856 5856 5857 5858 5858 5859 5859 5860 5861 5862 5863 5865 5866 5867 5869 5871 5872 5874 5876 5877 5878 5880 5882 5883 5884 5886 5888 5890 5891 5892 5893 5894 5895 5895 5895 5896 5897 5898 5899 5900 5901 5902 5903 5903 5905 5906 5907 5908 5910 5911 5913
5878 5877 5876 5875 5874 5873 5872 5871 5869 5868 5867 5866 5865 5864 5863 5862 5860 5859 5858 5857 5856 5855 5854 5854 5854 5853 5853 5853 5853 5853 5853 5853 5853 5853 5854 5854 5854 5855 5856 5856 5856 5857 5858 5858 5859 5859 5860 5861 5862 5863 5864 5866 5868 5870 5872 5874 5875 5876 5878 5880 5881 5882 5884 5886 5888 5889 5891 5892 5894 5894 5894 5895 5896 5897 5898 5899 5900 5901 5902 5902 5903 5904 5905 5906 5907 5909 5910 5912
5877 5876 5875 5874 5873 5872 5870 5869 5868 5867 5866 5865 5864 5863 5862 5860 5859 5858 5857 5856 5855 5854 5853 5853 5853 5852 5852 5852 5852 5852 5852 5852 5852 5852 5853 5853 5853 5854 5854 5855 5855 5856 5857 5857 5858 5858 5858 5859 5859 5860 5862 5864 5865 5867 5869 5871 5872 5875 5877 5879 5880 5881 5882 5884 5886 5888 5889 5891 5893 5893 5893 5894 5895 5896 5898 5898 5899 5900 5901 5902 5902 5903 5904 5905 5906 5907 5909 5911
5875 5874 5873 5872 5871 5870 5869 5868 5867 5866 5865 5864 5863 5862 5861 5859 5858 5857 5856 5855 5854 5853 5852 5852 5852 5851 5851 5851 5851 5851 5851 5851 5852 5852 5852 5852 5853 5853 5853 5854 5855 5855 5856 5856 5856 5857 5857 5857 5858 5858 5860 5862 5863 5865 5867 5869 5870 5873 5875 5877 5878 5880 5881 5882 5884 5886 5888 5890 5891 5891 5892 5893 5894 5896 5897 5898 5899 5900 5901 5902 5902 5903 5904 5904 5905 5907 5908 5910
5873 5873 5872 5871 5870 5868 5868 5867 5866 5864 5863 5862 5861 5860 5859 5858 5857 5856 5855 5854 5853 5852 5852 5851 5851 5850 5850 5850 5850 5850 5850 5851 5851 5851 5851 5852 5852 5852 5853 5853 5854 5854 5855 5855 5855 5855 5855 5856 5856 5857 5858 5860 5862 5864 5867 5869 5870 5871 5874 5876 5877 5878 5879 5880 5882 5884 5886 5888 5888 5889 5890 5891 5893 5894 5896 5897 5898 5900 5901 5902 5902 5903 5904 5904 5905 5907 5908 5909
5872 5871 5870 5869 5868 5867 5866 5865 5864 5863 5862 5861 5860 5859 5858 5857 5856 5856 5854 5853 5852 5852 5851 5851 5850 5850 5849 5849 5849 5849 5849 5850 5850 5850 5850 5851 5851 5851 5852 5852 5853 5853 5854 5854 5854 5854 5854 5855 5855 5855 5856 5858 5860 5863 5865 5867 5869 5871 5874 5875 5875 5876 5877 5878 5880 5881 5883 5884 5885 5887 5889 5890 5892 5893 5894 5895 5897 5899 5900 5901 5902 5902 5903 5904 5905 5907 5908 5909
5870 5869 5868 5867 5866 5865 5864 5864 5863 5862 5861 5860 5859 5858 5857 5856 5855 5854 5853 5852 5852 5851 5851 5850 5850 5849 5849 5849 5848 5848 5849 5849 5849 5849 5849 5849 5850 5850 5851 5851 5851 5852 5852 5852 5852 5852 5853 5854 5854 5854 5855 5857 5859 5861 5863 5865 5867 5870 5873 5873 5873 5873 5874 5876 5877 5878 5881 5882 5884 5886 5888 5890 5891 5892 5893 5894 5896 5897 5899 5900 5901 5902 5903 5904 5905 5906 5907 5908
5868 5867 5866 5865 5864 5863 5863 5862 5861 5860 5860 5859 5858 5857 5856 5855 5854 5853 5852 5852 5851 5851 5850 5850 5849 5849 5848 5848 5848 5848 5847 5848 5848 5848 5848 5848 5849 5849 5849 5850 5850 5851 5851 5851 5851 5852 5852 5853 5853 5853 5854 5856 5858 5859 5861 5863 5865 5867 5870 5870 5870 5871 5872 5874 5875 5877 5879 5880 5882 5885 5887 5889 5890 5891 5892 5893 5894 5896 5897 5898 5899 5901 5902 5903 5904 5905 5905 5906
5866 5865 5864 5863 5862 5862 5861 5860 5860 5859 5858 5857 5857 5856 5855 5854 5853 5852 5851 5851 5851 5850 5850 5849 5849 5848 5848 5848 5847 5847 5847 5847 5847 5847 5848 5848 5848 5848 5848 5848 5849 5850 5850 5850 5851 5851 5852 5852 5852 5852 5853 5854 5856 5857 5858 5860 5862 5864 5866 5867 5869 5870 5870 5872 5873 5875 5877 5879 5881 5884 5886 5888 5890 5891 5892 5892 5893 5893 5895 5895 5896 5898 5899 5900 5902 5903 5904 5905
5864 5863 5862 5861 5860 5860 5859 5858 5858 5857 5857 5856 5855 5854 5853 5853 5852 5851 5850 5850 5850 5850 5849 5849 5848 5848 5847 5847 5847 5847 5846 5846 5846 5846 5847 5847 5847 5847 5847 5847 5848 5848 5849 5849 5850 5851 5851 5851 5851 5852 5852 5853 5854 5855 5857 5858 5860 5862 5864 5865 5866 5867 5868 5869 5871 5873 5876 5879 5881 5882 5884 5887 5889 5891 5891 5891 5891 5891 5892 5893 5893 5894 5896 5897 5900 5901 5902 5903
5862 5861 5860 5859 5858 5858 5857 5857 5856 5856 5855 5854 5854 5853 5852 5851 5851 5850 5849 5849 5849 5849 5848 5848 5847 5847 5846 5846 5846 5845 5845 5845 5845 5845 5846 5846 5846 5846 5846 5846 5847 5847 5848 5848 5849 5850 5850 5850 5851 5851 5851 5852 5853 5854 5855 5856 5858 5861 5862 5863 5863 5865 5866 5868 5870 5873 5875 5878 5880 5881 5883 5885 5887 5889 5889 5889 5890 5890 5891 5892 5892 5892 5893 5895 5897 5898 5900 5901
5860 5859 5858 5857 5856 5856 5855 5855 5854 5854 5853 5853 5852 5851 5851 5850 5850 5849 5849 5848 5848 5848 5847 5847 5847 5846 5846 5845 5845 5844 5844 5843 5844 5845 5845 5845 5845 5845 5845 5845 5846 5846 5846 5847 5848 5848 5849 5849 5850 5850 5850 5851 5851 5852 5853 5854 5856 5858 5860 5861 5862 5863 5865 5867 5870 5872 5875 5877 5878 5878 5880 5883 5885 5886 5887 5889 5890 5891 5891 5891 5891 5891 5892 5893 5894 5896 5898 5899
5857 5856 5856 5855 5854 5853 5853 5853 5852 5852 5852 5851 5851 5850 5849 5849 5849 5848 5848 5847 5847 5847 5847 5846 5846 5846 5845 5844 5844 5843 5843 5843 5843 5844 5844 5844 5844 5844 5844 5844 5844 5845 5845 5845 5846 5847 5847 5848 5848 5849 5849 5849 5850 5851 5852 5853 5854 5856 5858 5860 5861 5862 5864 5866 5868 5870 5873 5874 5875 5876 5878 5881 5883 5884 5885 5888 5889 5889 5890 5890 5890 5890 5891 5892 5893 5894 5895 5896
5855 5854 5853 5853 5852 5851 5851 5851 5850 5850 5850 5849 5849 5848 5848 5847 5847 5847 5846 5846 5846 5846 5846 5845 5845 5845 5845 5844 5843 5842 5842 5842 5843 5843 5844 5843 5843 5843 5843 5843 5843 5843 5843 5843 5844 5845 5845 5846 5847 5847 5847 5848 5849 5850 5851 5851 5853 5854 5856 5858 5860 5861 5863 5865 5866 5868 5870 5871 5873 5874 5876 5879 5881 5882 5884 5885 5886 5887 5888 5887 5888 5889 5889 5890 5891 5893 5893 5894
5852 5852 5851 5850 5849 5849 5848 5848 5848 5848 5848 5847 5847 5846 5846 5846 5845 5845 5845 5844 5844 5844 5845 5845 5844 5844 5844 5844 5843 5842 5841 5840 5841 5842 5843 5842 5842 5842 5842 5842 5842 5842 5842 5842 5842 5843 5844 5844 5845 5846 5846 5847 5848 5849 5850 5850 5851 5853 5854 5856 5858 5859 5861 5863 5863 5865 5866 5867 5869 5871 5874 5877 5879 5880 5882 5882 5883 5885 5885 5886 5886 5887 5887 5888 5888 5889 5891 5893
5850 5849 5848 5848 5847 5846 5846 5846 5846 5846 5846 5845 5845 5844 5844 5843 5843 5843 5843 5843 5843 5843 5843 5843 5843 5843 5843 5843 5842 5841 5841 5840 5839 5840 5841 5841 5841 5841 5841 5841 5841 5841 5841 5841 5841 5841 5842 5842 5843 5844 5845 5846 5847 5848 5848 5849 5850 5851 5852 5854 5856 5857 5860 5861 5862 5863 5864 5865 5867 5869 5872 5875 5876 5877 5879 5880 5881 5883 5884 5884 5885 5886 5886 5886 5886 5886 5888 5890
5847 5846 5846 5845 5844 5844 5843 5843 5843 5843 5843 5843 5842 5842 5841 5841 5841 5841 5841 5841 5841 5841 5841 5841 5841 5842 5842 5842 5842 5841 5840 5840 5839 5838 5839 5839 5840 5839 5839 5839 5840 5840 5840 5840 5840 5840 5840 5840 5842 5843 5843 5844 5846 5846 5847 5848 5849 5850 5851 5852 5853 5855 5858 5859 5861 5862 5862 5864 5866 5869 5871 5873 5874 5875 5877 5878 5879 5880 5882 5883 5883 5884 5884 5884 5884 5884 5885 5887
5844 5844 5843 5842 5841 5841 5840 5840 5840 5840 5840 5840 5840 5839 5839 5838 5838 5838 5839 5839 5838 5838 5838 5839 5839 5840 5840 5840 5840 5840 5839 5839 5838 5838 5838 5838 5838 5838 5838 5838 5838 5838 5838 5839 5839 5839 5839 5839 5839 5841 5842 5842 5844 5845 5845 5846 5847 5848 5850 5850 5851 5853 5855 5857 5859 5860 5861 5862 5865 5868 5870 5870 5871 5873 5875 5876 5877 5878 5880 5881 5882 5883 5883 5883 5883 5883 5883 5884
5841 5840 5840 5839 5839 5838 5838 5837 5837 5837 5837 5837 5837 5837 5836 5836 5836 5836 5836 5836 5836 5836 5836 5836 5837 5837 5837 5837 5838 5838 5837 5837 5837 5837 5837 5837 5836 5836 5836 5836 5837 5837 5837 5837 5837 5837 5837 5837 5837 5839 5840 5840 5841 5843 5844 5845 5845 5847 5848 5848 5849 5851 5853 5855 5857 5857 5858 5860 5862 5865 5868 5868 5869 5871 5873 5874 5875 5876 5877 5879 5880 5881 5882 5882 5882 5882 5882 5882
5837 5837 5836 5836 5836 5835 5835 5834 5834 5834 5834 5834 5834 5834 5834 5834 5834 5834 5834 5834 5834 5834 5834 5834 5834 5835 5835 5835 5835 5835 5835 5835 5835 5835 5835 5835 5835 5835 5835 5835 5835 5835 5835 5835 5835 5835 5835 5836 5836 5837 5838 5839 5840 5841 5842 5843 5844 5845 5846 5846 5847 5848 5850 5852 5853 5853 5855 5857 5859 5862 5864 5865 5867 5870 5872 5873 5874 5875 5875 5876 5878 5879 5880 5880 5880 5880 5880 5880
5834 5833 5833 5832 5832 5832 5831 5831 5831 5831 5831 5831 5831 5831 5831 5831 5831 5831 5832 5831 5831 5832 5832 5832 5832 5832 5833 5833 5833 5834 5834 5834 5834 5833 5833 5833 5833 5833 5833 5833 5833 5833 5833 5833 5833 5833 5833 5834 5834 5835 5836 5837 5838 5839 5840 5841 5842 5843 5844 5845 5845 5846 5848 5849 5849 5850 5852 5854 5856 5858 5859 5862 5865 5868 5870 5871 5872 5873 5873 5874 5875 5876 5876 5877 5878 5878 5878 5879
5829 5829 5829 5829 5829 5828 5828 5828 5828 5828 5828 5828 5828 5828 5828 5829 5829 5829 5829 5829 5829 5829 5829 5829 5829 5830 5830 5831 5832 5832 5832 5832 5832 5832 5831 5831 5831 5831 5832 5832 5832 5832 5832 5832 5831 5831 5831 5832 5832 5833 5834 5835 5835 5836 5837 5839 5840 5841 5842 5843 5844 5845 5846 5846 5847 5847 5849 5851 5853 5855 5856 5859 5863 5866 5867 5869 5871 5871 5871 5872 5873 5872 5872 5875 5876 5876 5877 5878
5825 5825 5825 5825 5825 5824 5824 5824 5824 5824 5824 5824 5824 5825 5826 5826 5826 5826 5827 5827 5827 5827 5827 5827 5827 5827 5828 5829 5830 5830 5830 5831 5831 5830 5830 5830 5829 5830 5830 5830 5830 5830 5830 5830 5830 5830 5830 5830 5831 5831 5832 5833 5833 5834 5835 5836 5838 5839 5840 5841 5842 5843 5844 5845 5845 5845 5846 5848 5850 5853 5854 5856 5861 5864 5865 5867 5868 5868 5869 5870 5869 5868 5871 5873 5874 5874 5875 5876
5820 5821 5821 5821 5821 5820 5820 5820 5820 5820 5820 5820 5821 5822 5823 5823 5823 5823 5824 5824 5824 5825 5825 5825 5825 5825 5825 5826 5827 5828 5828 5828 5829 5829 5828 5828 5828 5828 5828 5828 5828 5828 5828 5828 5828 5828 5829 5829 5829 5830 5830 5831 5831 5832 5832 5833 5835 5837 5838 5839 5841 5842 5843 5843 5843 5844 5845 5846 5848 5850 5852 5854 5859 5861 5863 5865 5865 5865 5866 5867 5866 5867 5869 5871 5870 5871 5872 5872
5815 5816 5816 5816 5816 5816 5816 5816 5816 5816 5816 5816 5818 5819 5820 5820 5820 5820 5821 5821 5821 5822 5822 5822 5823 5823 5823 5823 5824 5825 5826 5826 5826 5827 5826 5826 5826 5826 5827 5827 5827 5826 5826 5826 5826 5827 5827 5827 5827 5828 5828 5829 5830 5830 5831 5831 5833 5834 5835 5837 5838 5840 5841 5841 5841 5842 5844 5845 5846 5848 5849 5851 5855 5858 5860 5862 5862 5862 5863 5863 5864 5866 5867 5867 5868 5869 5869 5870
5810 5811 5812 5812 5812 5812 5812 5812 5812 5812 5812 5813 5814 5815 5816 5817 5817 5818 5818 5818 5818 5819 5820 5820 5820 5821 5821 5821 5822 5822 5823 5824 5824 5824 5824 5824 5824 5825 5825 5825 5825 5825 5824 5824 5825 5825 5825 5825 5826 5826 5827 5827 5828 5829 5829 5830 5830 5831 5833 5834 5835 5837 5838 5839 5839 5839 5841 5844 5845 5845 5846 5848 5851 5854 5856 5858 5859 5859 5860 5860 5862 5864 5864 5864 5865 5866 5867 5868
5805 5806 5807 5807 5807 5807 5808 5808 5808 5808 5809 5809 5810 5811 5813 5814 5814 5815 5816 5815 5815 5816 5817 5817 5818 5818 5819 5819 5819 5819 5820 5821 5822 5822 5822 5822 5822 5823 5823 5823 5823 5823 5823 5823 5823 5823 5823 5823 5824 5824 5825 5825 5826 5826 5827 5828 5828 5829 5830 5831 5833 5834 5835 5836 5836 5836 5838 5841 5842 5842 5843 5845 5847 5850 5852 5854 5855 5856 5857 5858 5859 5861 5861 5862 5863 5864 5865 5866
5799 5800 5802 5803 5803 5803 5803 5804 5804 5805 5805 5806 5807 5808 5809 5810 5811 5812 5813 5813 5813 5813 5814 5815 5815 5816 5817 5817 5817 5817 5817 5818 5819 5820 5820 5820 5820 5820 5820 5821 5821 5821 5821 5821 5821 5821 5821 5821 5822 5823 5823 5823 5824 5824 5825 5825 5826 5826 5827 5829 5830 5831 5832 5832 5832 5833 5835 5837 5838 5839 5840 5842 5844 5846 5848 5850 5852 5853 5854 5856 5857 5858 5858 5860 5861 5862 5862 5863
5794 5795 5797 5798 5798 5799 5799 5800 5800 5801 5802 5803 5803 5804 5805 5806 5807 5808 5810 5810 5811 5811 5812 5813 5813 5814 5814 5815 5815 5815 5815 5815 5816 5817 5817 5817 5817 5817 5818 5819 5819 5819 5819 5819 5819 5819 5819 5819 5820 5821 5821 5821 5822 5822 5823 5823 5823 5824 5824 5826 5827 5827 5828 5829 5829 5829 5831 5833 5835 5836 5838 5839 5840 5843 5845 5846 5848 5850 5852 5853 5854 5855 5857 5858 5859 5860 5860 5861
5790 5790 5792 5794 5794 5795 5795 5796 5796 5797 5798 5799 5800 5801 5801 5802 5803 5805 5806 5807 5808 5809 5810 5811 5811 5811 5812 5812 5812 5812 5812 5813 5813 5814 5814 5814 5815 5815 5816 5816 5817 5817 5817 5817 5817 5817 5817 5817 5818 5819 5819 5819 5820 5820 5821 5821 5821 5821 5822 5822 5823 5824 5825 5825 5826 5826 5827 5829 5831 5832 5834 5836 5836 5838 5841 5843 5845 5847 5849 5851 5852 5853 5855 5856 5857 5858 5859 5859
5786 5786 5787 5788 5790 5790 5791 5792 5792 5793 5794 5796 5797 5797 5798 5798 5800 5802 5803 5804 5805 5806 5807 5809 5809 5809 5809 5810 5810 5810 5809 5810 5810 5811 5811 5812 5812 5813 5814 5814 5815 5815 5815 5815 5815 5816 5816 5816 5816 5817 5817 5817 5818 5818 5819 5819 5819 5819 5819 5819 5820 5820 5821 5821 5822 5823 5824 5825 5827 5828 5830 5832 5833 5834 5837 5840 5842 5844 5847 5848 5849 5851 5853 5854 5855 5856 5857 5857
5781 5782 5782 5783 5785 5786 5787 5788 5789 5790 5791 5792 5793 5794 5794 5795 5796 5798 5799 5801 5802 5803 5805 5806 5806 5806 5807 5807 5808 5807 5807 5807 5808 5808 5809 5809 5810 5811 5811 5812 5813 5813 5813 5813 5814 5814 5814 5814 5815 5815 5815 5815 5815 5816 5816 5817 5817 5817 5816 5816 5817 5817 5818 5818 5818 5820 5821 5821 5822 5824 5826 5828 5829 5830 5833 5837 5839 5841 5843 5845 5847 5848 5850 5852 5853 5854 5855 5855
5777 5777 5778 5779 5780 5781 5783 5784 5785 5786 5787 5788 5789 5790 5791 5791 5793 5795 5796 5797 5799 5800 5801 5802 5803 5804 5804 5805 5805 5805 5805 5805 5806 5806 5807 5807 5807 5808 5809 5809 5810 5811 5811 5812 5812 5812 5812 5812 5813 5813 5813 5812 5812 5813 5814 5814 5814 5814 5814 5813 5814 5814 5815 5815 5815 5816 5817 5817 5818 5821 5823 5826 5828 5827 5828 5832 5835 5837 5839 5841 5843 5845 5847 5849 5850 5851 5853 5854